Temperature
14 15 15 15 18 20 20 20 20 19 19 18 18 19 20 20 20 20 15 15 15 15 15 15 15 15 15 16 15 15 16 16 16 16 16 16 16 16 16 16 16 16 16 16 16 15 15 15 15
14 14 15 16 19 20 20 20 19 19 18 17 17 18 18 18 17 15 14 14 14 14 14 15 15 15 15 15 15 15 15 16 16 16 16 16 16 16 16 16 16 16 16 15 15 15 15 15 15
14 14 15 18 19 20 20 19 19 17 16 16 17 17 17 17 15 14 14 14 14 14 14 14 15 15 15 15 15 15 15 15 15 15 16 15 15 15 16 16 16 16 15 15 15 15 15 15 15
13 14 15 18 18 18 19 18 17 17 16 15 16 17 15 14 13 14 14 13 13 13 14 14 14 15 15 15 15 15 15 15 15 15 15 15 15 15 15 15 15 15 15 15 15 15 15 15 15
13 15 17 17 17 17 17 16 16 17 16 16 16 17 15 13 13 13 13 13 13 13 13 13 14 14 14 15 15 15 15 15 15 15 15 15 15 15 15 15 15 15 15 15 15 15 15 15 14
13 15 17 17 17 16 16 15 15 16 16 15 15 16 14 13 13 13 13 13 13 13 13 13 13 14 14 14 14 15 15 15 15 15 15 15 15 15 15 15 15 15 15 15 15 15 14 14 14
14 15 16 16 16 16 15 14 14 15 15 15 14 15 14 12 12 12 12 12 12 12 12 13 13 13 13 14 14 14 14 14 15 15 15 15 15 15 15 15 15 15 15 14 14 14 14 14 14
12 14 15 15 15 15 14 13 13 13 14 12 12 14 14 12 11 11 11 11 12 12 12 12 12 13 13 13 13 14 14 14 14 14 14 14 14 14 14 14 14 15 15 14 14 14 14 14 14
11 14 14 14 14 14 13 12 12 11 11 11 11 12 11 11 11 11 11 11 11 11 11 12 12 12 12 12 13 13 13 13 14 14 14 14 14 14 14 14 14 14 14 14 14 14 14 14 13
12 13 13 13 13 13 12 12 11 11 12 11 11 10 10 10 10 10 10 11 11 11 11 11 11 12 12 12 12 12 13 13 13 13 13 13 13 13 13 14 14 14 14 14 14 13 13 13 13
11 12 12 11 11 11 11 11 10 11 12 11 11 10 9 9 10 10 10 10 10 11 11 11 11 11 11 12 12 12 12 12 12 12 13 13 13 13 13 13 13 13 13 13 13 13 13 13 12
10 10 10 10 9 9 10 10 10 10 10 10 9 9 9 9 9 9 9 10 10 10 10 11 11 11 11 11 11 12 12 12 12 12 12 12 12 13 12 13 13 13 13 13 13 12 12 12 12
10 10 9 8 8 8 8 9 9 9 9 9 9 8 8 8 9 9 9 9 9 9 10 10 10 10 11 11 11 11 12 12 12 12 12 12 12 12 12 12 12 12 12 12 12 12 12 12 12
9 9 9 9 8 8 8 9 8 9 8 8 8 8 8 8 8 8 8 8 9 9 9 9 9 10 10 10 10 11 11 11 11 11 11 11 11 11 11 11 12 12 12 12 12 12 11 11 11
8 9 10 9 9 8 8 9 9 9 8 8 8 8 8 7 8 8 8 8 8 9 9 9 9 9 9 10 10 10 10 11 11 11 11 11 11 11 11 11 11 11 11 11 11 11 11 11 11
9 10 11 10 9 9 9 11 10 8 8 9 9 8 8 7 7 7 8 8 8 8 8 8 8 9 9 9 9 10 10 10 10 10 10 10 10 10 10 11 11 11 11 11 11 10 10 10 10
10 10 11 10 9 9 9 10 10 8 8 8 8 8 7 7 7 7 7 7 7 8 8 8 8 8 8 9 9 9 9 9 9 10 10 10 10 10 10 10 10 10 10 10 10 10 10 10 10
10 10 10 10 9 9 9 9 10 8 8 8 8 7 7 7 7 7 7 7 7 7 7 7 7 8 8 8 8 8 9 9 9 9 9 9 9 10 10 10 10 10 10 10 10 10 9 9 9
9 9 9 9 8 8 9 9 10 9 8 8 8 7 7 7 6 6 6 6 7 7 7 7 7 7 7 8 8 8 8 8 8 9 9 9 9 9 9 9 9 9 9 9 9 9 9 9 9
8 8 9 9 8 8 8 9 9 9 8 7 7 7 6 6 6 6 6 6 6 6 7 6 7 7 7 7 7 8 8 8 8 8 8 8 9 9 9 9 9 9 9 9 9 9 9 9 8
8 8 8 8 8 8 8 10 9 8 7 7 6 6 5 5 5 5 5 5 5 6 6 6 6 6 7 7 7 7 7 7 7 8 8 8 8 8 8 8 8 8 8 8 8 8 8 8 8
8 7 7 7 7 8 7 9 10 9 8 7 6 6 5 4 4 4 4 4 5 5 5 5 6 6 6 6 6 6 7 7 7 7 7 8 8 7 8 8 8 8 8 8 8 8 8 8 8
7 6 6 6 7 7 7 7 10 8 8 7 6 5 5 4 4 4 4 4 4 4 5 5 5 5 6 6 6 6 6 6 6 6 6 7 7 7 7 7 7 7 7 8 8 8 8 7 7
6 6 6 6 6 7 7 8 10 9 7 7 6 5 4 3 3 3 4 4 4 4 4 4 4 5 5 5 5 5 5 6 6 6 6 6 6 6 6 6 7 7 7 7 7 7 7 7 7
6 7 8 8 8 9 7 7 8 7 6 5 5 4 4 3 3 3 3 4 4 4 4 4 4 4 4 5 5 5 5 5 5 5 5 5 5 6 6 6 6 6 6 7 7 7 7 7 7
5 6 7 8 9 9 7 7 8 6 5 4 4 4 3 3 3 3 3 3 3 3 4 4 4 4 4 4 4 4 4 4 4 5 5 5 5 5 5 5 6 6 6 6 6 6 6 6 6
5 5 5 5 5 6 8 7 7 6 5 4 4 3 3 3 3 2 3 3 3 3 3 3 3 3 3 4 4 4 4 4 4 4 4 4 4 4 5 5 5 5 5 6 6 6 6 6 6
5 4 5 5 6 8 9 8 8 6 5 4 4 3 3 2 2 2 2 2 3 3 3 3 3 3 3 3 3 3 3 3 4 4 4 4 4 4 4 5 5 5 5 5 5 5 5 6 6
4 4 4 5 5 6 8 8 6 5 4 4 3 3 2 2 2 2 2 2 2 2 2 2 2 2 2 2 3 3 3 3 3 3 4 4 4 4 4 4 4 4 4 5 5 5 5 5 5
3 4 4 4 4 4 6 7 5 4 3 3 2 2 2 1 1 1 1 2 2 2 2 2 2 2 2 2 2 2 2 2 3 3 3 3 3 3 3 3 3 4 4 4 4 5 5 5 5
Wind_Speed
7 5 2 3 4 5 9 7 5 5 4 3 2 3 4 4 3 1 4 3 2 1 2 3 2 2 5 6 5 6 7 9 9 10 9 9 9 9 9 9 9 9 9 9 9 9 9 9 10
5 3 2 4 6 9 9 8 8 5 2 2 3 4 4 4 2 1 3 2 2 1 1 2 2 1 4 6 6 6 7 8 9 9 9 9 9 9 8 8 8 8 9 9 9 9 9 9 9
3 2 3 4 7 10 9 5 5 3 2 2 3 3 4 3 2 1 3 2 2 1 1 2 2 2 3 5 5 6 6 7 8 9 9 8 8 8 8 8 8 8 9 9 9 9 9 9 9
1 2 3 6 10 10 7 3 2 3 3 2 3 3 2 2 3 3 3 2 1 0 0 1 1 1 3 4 5 6 6 7 7 8 9 9 8 8 8 8 8 8 8 8 8 9 9 9 9
1 3 5 7 11 9 6 4 3 4 4 3 4 4 3 1 3 3 2 1 1 1 1 1 0 0 2 4 5 6 6 7 7 7 8 8 8 8 8 8 8 7 8 8 8 9 9 9 9
2 3 6 10 11 8 7 5 5 6 6 4 4 6 4 0 3 4 3 2 1 1 1 1 1 0 1 3 4 6 6 6 7 7 7 8 8 8 8 8 7 7 7 7 8 8 9 9 9
3 3 6 8 9 9 7 5 5 6 7 6 5 7 5 3 3 4 3 2 2 1 1 1 2 2 2 3 5 5 6 7 7 7 7 7 7 8 8 8 8 7 7 7 7 8 8 8 8
1 2 5 6 8 8 4 4 4 5 6 4 4 6 6 5 5 4 4 3 2 2 1 2 2 2 3 4 4 5 5 6 6 7 6 6 7 8 7 7 7 7 7 7 7 7 8 8 8
1 4 7 7 6 5 3 3 3 3 5 5 5 7 8 6 4 4 4 4 3 2 2 2 2 2 3 4 4 5 5 5 6 6 6 6 7 7 7 6 6 7 8 7 7 7 7 7 7
2 5 7 4 5 4 4 5 4 4 6 7 7 7 6 4 3 4 4 5 5 4 4 3 3 3 3 3 4 5 6 6 6 6 6 5 5 6 6 6 6 7 7 7 7 7 7 7 6
3 4 3 4 4 5 6 6 5 7 8 9 9 8 7 5 5 5 6 6 6 5 4 4 3 3 2 2 3 3 3 4 5 6 5 5 4 5 6 5 6 6 7 6 6 6 5 5 4
3 4 4 4 4 5 6 6 6 9 10 8 8 8 7 7 7 6 7 6 6 6 5 4 3 3 3 2 2 2 3 3 3 4 5 4 3 3 4 4 5 5 5 5 5 4 4 4 5
5 4 4 4 4 5 6 8 8 10 10 9 8 7 6 7 7 7 7 7 6 6 5 4 4 3 3 2 2 2 3 3 4 4 5 5 3 4 4 4 4 5 5 5 4 4 4 4 4
3 4 5 6 5 5 5 8 8 10 8 8 8 7 7 7 7 7 6 6 6 6 5 5 5 4 3 3 3 2 2 3 4 4 5 5 4 3 4 4 4 4 5 4 4 4 4 4 3
3 4 5 4 5 4 5 8 9 8 7 8 8 8 8 7 7 7 7 6 6 5 5 5 5 4 4 4 3 2 2 3 3 4 5 5 5 4 5 4 4 5 5 5 4 4 4 3 4
3 4 5 3 4 4 6 11 6 5 6 8 9 8 8 7 7 7 6 6 5 4 4 5 4 4 4 3 3 2 2 3 3 3 4 4 4 4 4 4 4 5 5 4 4 4 3 3 3
4 5 6 5 3 4 6 10 7 5 6 8 8 7 7 7 7 6 6 5 5 4 4 4 4 4 3 3 2 2 2 2 3 3 4 4 4 4 4 4 4 4 4 4 4 4 4 4 3
5 6 7 7 3 5 9 13 11 8 7 8 7 6 6 6 7 7 6 5 4 3 3 3 3 3 3 2 2 2 2 2 2 2 3 3 4 4 4 3 5 5 4 5 5 5 4 3 3
5 7 9 8 6 8 12 15 13 9 8 7 6 5 6 7 7 6 5 4 3 3 2 3 2 2 2 2 3 3 2 2 2 2 3 3 4 4 4 3 4 4 5 6 6 4 5 4 3
6 7 8 7 5 7 11 14 11 6 6 5 5 5 6 7 7 6 4 3 3 2 3 3 3 3 3 3 3 3 3 2 2 2 2 3 4 4 4 4 4 5 5 6 6 5 4 4 4
6 7 8 9 9 6 8 9 6 4 3 3 4 5 6 6 7 6 4 4 3 3 3 3 3 3 3 3 1 1 1 1 2 2 3 3 4 4 4 5 5 5 5 6 7 6 7 5 5
6 5 7 8 7 4 4 6 5 4 4 4 5 5 5 6 6 6 4 4 3 3 3 2 2 3 2 2 2 2 1 2 4 3 3 2 3 4 4 5 5 5 5 6 7 6 6 7 6
4 5 6 7 6 6 5 6 6 2 5 6 5 5 5 5 6 5 4 3 3 2 2 2 3 2 1 1 2 3 2 2 2 2 2 2 2 3 4 5 5 6 6 6 6 6 7 6 6
4 4 3 3 4 5 5 6 5 2 5 5 4 5 5 5 5 5 5 3 3 3 2 2 2 2 2 1 2 3 3 3 2 2 2 2 2 3 4 5 5 6 6 6 7 7 8 7 7
2 2 2 3 3 4 1 5 5 3 4 5 5 5 5 4 4 4 5 4 3 3 3 2 1 2 2 2 2 3 3 4 4 3 3 3 3 3 4 5 5 5 6 6 6 7 7 7 8
2 2 2 4 4 4 3 6 2 2 4 5 5 5 5 5 4 5 5 5 4 3 3 3 2 2 2 2 2 3 3 3 3 4 4 4 3 4 5 4 5 5 5 6 6 6 7 7 7
1 1 2 2 3 5 4 4 4 2 5 6 6 5 5 6 6 5 6 5 4 4 3 3 3 3 3 3 3 3 3 3 3 3 3 3 3 3 4 4 4 4 5 6 6 6 7 6 6
2 0 1 2 3 5 5 4 3 4 6 7 6 6 6 7 6 6 6 6 4 4 4 3 3 3 3 3 3 3 3 3 3 3 3 3 3 3 4 4 4 4 4 5 5 5 6 6 6
1 1 2 2 3 4 5 3 1 3 4 6 6 7 7 7 7 6 6 6 4 3 3 3 3 3 3 3 3 4 3 3 3 3 3 3 3 3 4 4 4 4 5 5 5 6 6 6 6
2 2 2 2 3 3 5 5 2 2 5 6 7 8 8 8 7 6 6 6 5 4 4 4 4 4 3 3 3 4 3 3 3 3 3 3 3 3 4 4 4 4 5 5 5 5 6 6 6
Wind_Direction
321 314 275 219 206 213 225 215 217 206 214 231 246 235 239 234 246 317 41 50 34 96 137 146 92 143 157 144 140 139 144 148 148 145 144 145 146 145 143 141 139 136 132 129 126 122 118 116 114
320 296 229 217 220 219 223 217 219 218 230 254 233 234 237 234 282 5 28 19 18 73 127 136 85 93 153 152 144 143 143 149 150 148 147 147 146 144 144 144 143 141 138 133 130 127 123 119 117
311 277 220 208 219 225 217 204 218 215 220 234 228 244 253 262 279 305 354 346 7 51 106 114 83 96 141 148 150 146 141 146 152 152 150 149 148 146 146 146 144 143 140 136 133 130 128 124 121
257 200 213 221 219 225 228 215 235 214 203 239 247 233 234 317 314 321 349 334 328 348 78 119 78 94 145 152 149 153 151 147 151 155 154 155 153 149 145 146 146 144 142 141 139 137 132 130 129
224 213 208 219 228 224 230 249 239 234 230 236 248 247 245 328 340 348 349 309 280 306 320 154 100 83 154 149 157 156 155 157 150 153 157 159 157 153 150 146 144 146 145 142 144 144 140 135 133
186 216 221 223 223 224 232 245 249 253 249 255 261 258 248 354 351 350 333 294 282 292 310 204 196 350 185 166 159 165 163 162 156 150 153 158 161 159 157 153 149 146 149 147 146 148 148 144 143
208 209 230 234 229 230 229 236 249 260 254 258 271 259 247 268 333 330 314 295 289 291 290 242 223 220 231 193 170 165 169 168 160 155 150 155 156 161 166 162 157 151 148 149 149 151 155 153 150
226 207 222 230 231 234 226 236 252 263 268 286 272 260 265 296 313 305 300 295 293 285 278 259 236 226 229 207 174 168 167 168 166 160 153 156 162 162 162 167 163 158 151 149 151 153 156 154 152
204 221 230 228 234 238 213 235 262 283 271 273 268 279 305 306 298 294 297 294 289 283 264 263 247 237 236 222 191 179 173 162 163 166 155 160 173 172 170 165 160 164 159 156 155 153 155 155 154
206 224 235 244 244 249 247 253 269 264 269 271 280 290 305 284 270 270 280 282 275 276 267 254 247 247 237 219 198 192 186 178 180 181 177 176 178 173 168 156 154 159 159 157 154 150 160 167 166
199 227 237 258 264 266 258 259 265 259 264 269 280 293 300 274 265 264 266 270 266 261 260 256 254 244 236 231 211 198 196 193 190 188 184 182 172 171 170 163 159 163 166 166 159 164 172 176 172
204 229 242 262 267 262 258 257 258 254 262 285 292 294 290 272 259 257 262 268 271 260 254 252 250 242 234 235 235 221 208 206 202 193 189 182 183 187 185 183 179 181 183 180 180 180 178 179 183
218 232 247 254 262 263 260 255 259 264 268 278 285 287 287 276 263 259 260 260 265 265 257 251 241 241 239 232 239 240 222 217 208 196 196 191 190 193 196 190 184 188 190 188 184 185 183 184 189
218 228 254 263 253 252 258 264 258 264 271 272 273 273 281 279 270 266 268 271 267 266 259 248 236 235 237 236 242 243 240 220 212 205 210 197 192 198 195 196 187 187 191 191 192 191 191 191 191
215 242 255 250 244 246 263 267 251 260 263 266 270 272 277 283 270 266 266 269 269 265 257 239 234 231 232 236 238 238 250 234 218 211 207 204 197 201 201 202 195 189 185 185 185 191 194 195 201
225 235 245 241 248 242 247 266 258 263 263 272 275 274 276 281 275 269 268 269 268 264 257 237 225 227 228 239 246 240 242 243 225 212 206 203 197 204 206 198 200 189 185 182 185 196 197 200 208
224 247 259 267 246 249 241 265 271 273 271 278 281 281 281 288 292 283 273 270 268 257 264 243 226 222 225 239 248 251 246 250 238 216 205 200 195 203 208 202 198 191 192 193 190 197 199 200 209
244 254 263 269 271 264 258 265 275 275 274 275 277 279 282 288 296 291 280 276 274 273 275 257 237 232 226 224 243 248 246 266 255 222 203 195 200 202 203 205 201 198 199 198 194 191 191 199 207
260 261 269 277 285 276 269 273 277 277 271 275 278 277 282 287 298 301 297 291 277 273 279 263 232 229 220 213 222 227 236 249 263 229 201 198 207 205 197 208 209 211 208 202 196 189 188 194 195
248 264 276 285 290 282 281 279 273 270 263 270 282 292 295 301 311 314 315 307 294 278 273 251 236 234 225 222 223 230 238 250 257 226 206 205 205 209 203 205 212 211 207 204 200 196 199 203 200
257 256 276 289 300 276 288 274 248 263 255 291 297 299 309 308 309 308 306 302 299 294 278 253 251 251 237 217 187 208 239 279 282 254 224 213 213 211 212 210 217 212 211 207 208 208 206 204 206
267 269 275 285 289 284 289 282 263 268 269 297 310 310 309 316 316 306 300 303 300 295 284 273 276 262 233 201 197 209 221 247 268 261 241 223 222 219 215 215 223 220 219 216 213 215 218 207 208
272 292 282 276 267 274 255 258 271 267 277 287 297 311 312 321 324 314 314 316 315 311 308 307 300 285 267 221 219 235 236 252 272 274 256 256 235 224 221 220 223 225 223 221 219 220 221 217 218
276 272 256 239 244 257 246 241 275 276 294 300 302 315 317 317 330 331 343 342 338 335 326 317 298 301 310 285 249 246 243 250 260 261 265 266 258 244 228 224 227 229 229 225 223 223 224 223 221
316 293 273 240 234 253 214 245 265 339 337 321 316 320 325 321 332 335 342 341 341 340 333 301 296 305 307 302 270 260 254 244 241 240 238 250 250 256 248 235 233 234 233 231 227 226 226 225 221
308 292 278 283 290 301 246 253 283 355 338 333 329 332 336 335 340 337 333 332 330 332 328 325 312 290 291 291 285 273 269 256 248 244 240 240 246 252 251 246 244 242 241 235 231 229 230 229 223
257 226 319 287 288 279 265 277 282 323 334 340 343 343 339 336 339 335 332 328 329 331 329 322 311 302 298 295 289 277 269 268 264 254 258 256 252 254 252 254 254 257 250 240 234 233 231 231 227
327 178 212 234 287 284 284 272 298 317 330 332 338 335 332 334 334 332 329 324 328 331 329 322 312 311 316 308 295 288 282 280 279 265 258 265 264 263 259 259 260 257 255 251 242 238 234 233 233
184 192 226 239 275 281 294 295 18 310 327 328 332 333 330 329 328 329 328 328 327 331 331 329 325 323 322 320 318 311 310 306 295 281 274 270 269 265 260 257 254 256 255 254 251 244 237 235 236
252 234 203 248 254 254 277 285 73 325 325 326 325 328 328 328 328 330 332 333 334 332 329 325 324 318 318 316 312 321 320 315 307 300 295 280 269 264 260 259 256 254 254 251 251 254 245 237 235
Height
1510 1511 1512 1515 1514 1508 1503 1503 1504 1507 1508 1511 1512 1512 1510 1510 1511 1515 1515 1511 1511 1511 1512 1512 1513 1514 1515 1516 1517 1518 1518 1519 1520 1521 1521 1522 1522 1523 1523 1524 1524 1525 1525 1525 1526 1526 1527 1527 1527
1510 1511 1514 1514 1507 1503 1501 1502 1505 1507 1510 1512 1512 1512 1511 1511 1513 1513 1511 1510 1511 1511 1511 1511 1512 1513 1514 1516 1516 1517 1518 1519 1519 1520 1521 1521 1522 1522 1523 1523 1524 1524 1525 1525 1526 1526 1526 1527 1527
1509 1511 1513 1509 1503 1498 1498 1502 1505 1509 1512 1512 1512 1512 1512 1512 1513 1513 1511 1510 1511 1511 1511 1511 1511 1512 1513 1514 1515 1516 1517 1518 1519 1519 1520 1521 1521 1522 1522 1523 1523 1524 1524 1525 1525 1526 1526 1526 1527
1510 1512 1512 1507 1501 1500 1501 1505 1509 1509 1512 1513 1512 1512 1512 1513 1513 1512 1511 1510 1510 1510 1511 1510 1510 1511 1512 1513 1514 1515 1516 1517 1517 1518 1519 1520 1520 1521 1521 1522 1522 1523 1524 1524 1525 1525 1525 1526 1526
1510 1511 1507 1504 1502 1503 1506 1509 1510 1509 1510 1512 1512 1510 1511 1512 1511 1510 1510 1510 1509 1510 1510 1510 1510 1510 1511 1511 1513 1514 1515 1516 1516 1517 1518 1519 1520 1520 1521 1521 1521 1522 1523 1523 1524 1524 1525 1525 1526
1511 1508 1503 1500 1501 1504 1508 1510 1511 1509 1510 1511 1512 1510 1510 1511 1510 1509 1509 1509 1509 1508 1508 1508 1508 1509 1509 1510 1511 1512 1513 1514 1515 1516 1517 1518 1518 1519 1520 1520 1521 1521 1522 1522 1523 1523 1524 1524 1525
1510 1507 1502 1500 1502 1504 1508 1510 1511 1509 1509 1511 1511 1510 1509 1510 1508 1507 1507 1507 1507 1507 1507 1507 1507 1507 1508 1509 1510 1511 1512 1512 1513 1514 1515 1516 1517 1518 1518 1519 1519 1520 1520 1521 1522 1522 1522 1523 1524
1509 1508 1505 1504 1503 1503 1508 1511 1511 1511 1510 1511 1511 1509 1508 1508 1507 1506 1506 1506 1505 1505 1505 1505 1505 1506 1506 1507 1508 1509 1510 1511 1511 1512 1513 1514 1515 1516 1516 1517 1518 1518 1519 1519 1520 1521 1521 1522 1522
1509 1509 1503 1503 1504 1505 1509 1510 1511 1512 1511 1510 1510 1509 1509 1506 1505 1504 1504 1504 1503 1503 1503 1503 1503 1503 1504 1505 1506 1506 1508 1508 1509 1510 1511 1512 1513 1514 1514 1515 1516 1517 1517 1518 1518 1519 1519 1520 1521
1509 1505 1503 1506 1507 1507 1509 1510 1511 1510 1509 1508 1508 1507 1506 1505 1504 1502 1501 1501 1500 1500 1501 1501 1501 1501 1502 1502 1503 1504 1505 1506 1507 1508 1508 1509 1510 1511 1512 1513 1514 1514 1515 1516 1516 1517 1518 1518 1519
1508 1506 1507 1509 1509 1509 1509 1509 1510 1509 1506 1506 1506 1504 1503 1503 1502 1500 1499 1499 1498 1498 1498 1498 1498 1499 1499 1499 1500 1501 1502 1503 1504 1505 1505 1506 1507 1508 1509 1510 1511 1512 1513 1513 1514 1515 1515 1516 1516
1508 1508 1509 1509 1510 1509 1509 1508 1508 1507 1505 1505 1504 1503 1501 1500 1499 1498 1497 1496 1496 1496 1495 1495 1496 1496 1496 1497 1497 1498 1499 1499 1501 1502 1503 1503 1504 1505 1506 1507 1508 1509 1510 1510 1511 1512 1513 1513 1514
1507 1508 1509 1509 1509 1508 1508 1507 1506 1503 1503 1503 1502 1500 1499 1497 1496 1495 1494 1494 1493 1492 1492 1492 1493 1493 1493 1494 1494 1495 1496 1496 1497 1498 1499 1501 1501 1502 1503 1504 1505 1506 1507 1508 1508 1509 1510 1511 1511
1507 1507 1507 1507 1507 1506 1506 1504 1503 1499 1500 1500 1498 1497 1496 1494 1493 1492 1491 1490 1490 1489 1489 1489 1490 1490 1491 1491 1491 1492 1492 1493 1494 1495 1496 1497 1498 1499 1500 1500 1501 1503 1504 1504 1505 1507 1507 1508 1509
1507 1506 1504 1504 1504 1504 1504 1499 1497 1496 1497 1496 1495 1494 1492 1491 1490 1489 1488 1487 1487 1486 1486 1486 1487 1487 1488 1488 1488 1489 1489 1490 1490 1492 1493 1494 1495 1496 1496 1497 1498 1499 1501 1501 1502 1503 1504 1505 1506
1505 1502 1498 1499 1501 1502 1504 1491 1492 1493 1493 1492 1491 1490 1489 1487 1487 1486 1485 1484 1484 1483 1483 1483 1484 1484 1485 1485 1485 1486 1486 1486 1487 1488 1489 1490 1491 1492 1493 1494 1494 1495 1497 1498 1499 1500 1500 1501 1502
1500 1496 1494 1496 1498 1499 1498 1489 1489 1490 1489 1488 1487 1487 1486 1484 1483 1482 1482 1481 1480 1480 1480 1480 1480 1481 1480 1481 1482 1483 1483 1483 1484 1485 1485 1486 1487 1488 1489 1490 1490 1492 1493 1494 1495 1496 1497 1498 1499
1496 1494 1494 1494 1496 1497 1493 1487 1486 1487 1487 1485 1484 1483 1482 1481 1480 1479 1479 1478 1477 1477 1477 1477 1477 1477 1478 1478 1480 1480 1480 1481 1481 1481 1482 1483 1484 1485 1486 1487 1487 1488 1489 1490 1491 1492 1494 1495 1496
1499 1497 1495 1493 1496 1495 1488 1484 1481 1483 1483 1481 1481 1480 1480 1479 1477 1476 1476 1474 1473 1473 1473 1473 1473 1474 1475 1476 1477 1477 1477 1477 1477 1478 1478 1479 1481 1482 1483 1484 1484 1485 1486 1487 1488 1488 1489 1491 1493
1500 1498 1494 1492 1494 1492 1486 1480 1477 1478 1479 1479 1479 1478 1476 1475 1474 1473 1472 1471 1470 1469 1470 1470 1470 1471 1472 1472 1473 1473 1473 1473 1474 1474 1475 1476 1477 1479 1479 1480 1481 1482 1483 1483 1484 1485 1486 1487 1488
1498 1497 1495 1494 1492 1490 1487 1473 1472 1474 1476 1477 1476 1476 1475 1474 1472 1470 1469 1468 1468 1467 1467 1467 1467 1468 1469 1469 1470 1470 1470 1470 1471 1471 1471 1472 1474 1475 1476 1477 1478 1478 1479 1480 1481 1481 1482 1483 1484
1495 1497 1497 1495 1492 1485 1487 1474 1465 1470 1471 1473 1474 1473 1473 1471 1470 1468 1467 1466 1465 1465 1465 1464 1464 1465 1465 1466 1466 1466 1466 1466 1468 1468 1467 1468 1470 1472 1473 1473 1474 1475 1476 1476 1477 1478 1479 1480 1480
1498 1498 1497 1494 1492 1490 1485 1483 1461 1467 1468 1469 1471 1471 1471 1469 1468 1466 1465 1464 1463 1462 1462 1461 1462 1462 1462 1462 1463 1464 1464 1465 1465 1465 1464 1465 1466 1468 1469 1470 1470 1471 1472 1473 1473 1474 1475 1476 1476
1500 1497 1495 1494 1491 1486 1479 1478 1460 1464 1467 1468 1470 1470 1470 1468 1466 1465 1463 1462 1462 1461 1460 1460 1460 1459 1459 1460 1461 1461 1461 1461 1461 1461 1461 1461 1462 1464 1465 1466 1466 1467 1468 1468 1469 1470 1471 1471 1472
1499 1494 1486 1481 1479 1471 1480 1477 1466 1469 1472 1471 1470 1469 1468 1466 1465 1463 1461 1461 1459 1459 1459 1459 1458 1457 1457 1458 1458 1459 1458 1459 1458 1458 1458 1459 1459 1460 1461 1462 1462 1463 1463 1464 1465 1466 1466 1467 1467
1500 1498 1491 1481 1471 1466 1477 1472 1466 1473 1473 1472 1470 1469 1467 1466 1464 1462 1461 1459 1458 1457 1457 1456 1455 1455 1455 1455 1455 1456 1456 1456 1456 1455 1455 1455 1455 1456 1457 1457 1458 1458 1459 1460 1461 1462 1462 1463 1463
1500 1499 1501 1497 1494 1487 1468 1469 1468 1471 1472 1471 1469 1468 1467 1465 1463 1462 1460 1459 1457 1456 1456 1455 1454 1453 1453 1453 1453 1453 1453 1452 1452 1452 1452 1453 1453 1453 1454 1454 1454 1454 1455 1456 1457 1457 1458 1458 1458
1505 1503 1501 1496 1487 1471 1462 1465 1464 1468 1470 1470 1469 1467 1466 1464 1463 1461 1460 1458 1457 1456 1455 1453 1452 1452 1451 1451 1451 1450 1450 1449 1450 1449 1449 1450 1450 1450 1450 1450 1450 1450 1450 1451 1452 1452 1453 1453 1453
1505 1505 1502 1497 1495 1482 1466 1462 1469 1471 1471 1471 1469 1468 1466 1464 1462 1460 1458 1456 1455 1455 1454 1452 1451 1450 1449 1448 1449 1448 1447 1447 1447 1447 1447 1447 1446 1446 1446 1446 1446 1446 1447 1447 1447 1447 1448 1448 1448
1505 1503 1502 1498 1497 1494 1481 1470 1472 1473 1473 1472 1470 1468 1466 1464 1462 1460 1457 1455 1453 1452 1452 1450 1449 1448 1447 1447 1447 1446 1445 1445 1444 1444 1444 1444 1444 1444 1444 1443 1443 1443 1443 1443 1443 1443 1444 1444 1444